SL-8 DEB

基本信息
目录编号:
60605
目录名称:
SL-8 DEB
国际标识:
1991-009EA
轨道中心:
EARTH
物体状态:
在轨
发射日期:
1991-02-12 UTC
轨道信息
数据来源: 国际轨道数据
星历时间: 2026-09-13T09:03:37+0800
半长轴: 7970.905km
偏心率: 0.0173036
轨道倾角: 74.052°
近地点辐角: 178.881°
升交点赤经: 125.677°
平近点角: 181.264°
近地点: 1454.842km
远地点: 1730.694km
周期: 118.038分钟
每日圈数: 12.199482
详细信息
发射场:
PKMTR
轨道高度:
LEO
数据来源:
AOE Integration Group
参考系:
TEME
时间系统:
UTC
历元类型:
SGP4
2D轨道图
3D轨道图
轨道高度分析图
轨道倾角分析图
轨道综合分析图
查看轨道综合分析图